Вернуться в каталог

STARLINK-35709

АктивенСвязьVLEO
NORAD 66216·PAYLOAD·🇺🇸 United States

Запущен Oct 28, 2025 с Vandenberg Space Force Base

Loading…

Ближайшие Пролёты (ближайшие 24 часа)

TLE

СвежийSource: CelesTrak SupGP

Эпоха: Sep 15, 2026, 03:48 UTC

1 66216C 25244L   26258.15881944 -.00022730  00000+0 -67180-3 0  2589
2 66216  53.1598  68.4753 0000942  76.3880  62.1306 15.34390921    10

Отслеживайте STARLINK-35709 в реальном времени с AllMySat

Download on the App Store